N365AD -KMYF

Flight info

Callsign N365AD
Flight time N/A
Altitude VFR
Route
Aircraft C172/L-VGD/C

Departure

Time N/A
Airport -

Arrival

Time 2026-05-08 22:20
Airport Montgomery-Gibbs Executive Airport (KMYF)
Time Latitude Longitude Altitude Speed Heading
2026-05-08 22:13 32.75768 -117.21146 1110 ft 106 kts 316°
2026-05-08 22:13 32.76319 -117.21674 1389 ft 96 kts 319°
2026-05-08 22:13 32.76816 -117.22181 1628 ft 90 kts 316°
2026-05-08 22:13 32.77294 -117.22782 1371 ft 126 kts 308°
2026-05-08 22:14 32.77791 -117.23557 1489 ft 120 kts 304°
2026-05-08 22:14 32.78330 -117.24257 1641 ft 111 kts 322°
2026-05-08 22:14 32.78906 -117.24802 1852 ft 102 kts 319°
2026-05-08 22:14 32.79421 -117.25356 2112 ft 93 kts 316°
2026-05-08 22:15 32.79896 -117.25859 2374 ft 91 kts 321°
2026-05-08 22:15 32.80362 -117.26358 2553 ft 91 kts 320°
2026-05-08 22:15 32.80792 -117.26868 2803 ft 81 kts 314°
2026-05-08 22:15 32.81152 -117.27371 2988 ft 82 kts 312°
2026-05-08 22:16 32.81627 -117.27823 2928 ft 102 kts 346°
2026-05-08 22:16 32.82318 -117.27511 2914 ft 118 kts 46°
2026-05-08 22:16 32.82632 -117.26527 2798 ft 134 kts 78°
2026-05-08 22:16 32.82738 -117.25340 2463 ft 146 kts 83°
2026-05-08 22:17 32.82866 -117.24130 2217 ft 146 kts 83°
2026-05-08 22:17 32.82954 -117.23019 2314 ft 128 kts 91°
2026-05-08 22:17 32.82924 -117.21894 1874 ft 154 kts 94°
2026-05-08 22:17 32.82830 -117.20725 1718 ft 127 kts 98°
2026-05-08 22:18 32.82733 -117.19727 1532 ft 129 kts 96°
2026-05-08 22:18 32.82686 -117.18633 1489 ft 134 kts 93°
2026-05-08 22:18 32.82671 -117.17510 1478 ft 137 kts 91°
2026-05-08 22:18 32.82669 -117.16347 1313 ft 146 kts 91°
2026-05-08 22:19 32.82649 -117.15129 1154 ft 136 kts 101°
2026-05-08 22:19 32.82458 -117.14051 987 ft 131 kts 107°
2026-05-08 22:19 32.82071 -117.13238 902 ft 101 kts 157°
2026-05-08 22:19 32.81508 -117.13371 622 ft 91 kts 244°
2026-05-08 22:20 32.81652 -117.14069 421 ft 73 kts 291°
2026-05-08 22:20 32.81762 -117.14346 417 ft 41 kts 298°
2026-05-08 22:20 32.81742 -117.14506 418 ft 5 kts 192°
2026-05-08 22:20 32.81739 -117.14507 418 ft 0 kts 193°
2026-05-08 22:21 32.81737 -117.14508 418 ft 3 kts 195°
2026-05-08 22:21 32.81644 -117.14558 412 ft 23 kts 206°
2026-05-08 22:21 32.81517 -117.14610 416 ft 17 kts 165°
2026-05-08 22:22 32.81446 -117.14572 421 ft 17 kts 154°
2026-05-08 22:22 32.81428 -117.14480 419 ft 17 kts 65°